Wetbulb
59.24 59.19 59.15 59.02 59.02 59.17 58.95 59.10 59.08 59.41 59.50 59.97 60.27 60.95 61.95 62.10 61.52 66.59 65.06 66.88 71.30 74.34 72.13 68.78 69.27 67.96 67.89 65.86 66.33 67.45 61.61 58.11 58.49 59.64 61.43 66.14 65.15 68.31 70.23 68.71 69.56 70.49 70.96 73.32 74.41
59.25 59.07 59.02 58.83 59.02 58.94 58.98 58.78 58.84 58.96 59.18 59.53 59.79 60.85 61.84 62.10 64.64 63.04 70.65 73.63 74.18 75.58 66.63 65.82 65.25 64.61 64.37 62.73 64.71 62.98 59.93 58.80 61.69 61.77 61.51 64.19 65.24 65.84 66.95 67.14 69.29 69.92 72.73 74.22 74.37
59.10 58.88 58.51 58.71 58.62 58.81 58.68 58.61 58.71 58.64 58.78 59.01 59.63 61.15 61.88 63.31 62.73 62.41 74.33 74.85 73.93 72.20 66.37 66.63 66.22 64.24 62.04 62.66 61.52 61.94 59.13 60.73 61.70 63.04 63.23 62.64 63.91 66.28 65.48 64.69 67.43 68.79 71.59 73.19 73.29
58.62 58.51 58.81 58.50 58.48 58.25 58.34 58.44 58.41 58.34 58.58 58.83 60.02 61.50 62.36 64.58 55.20 63.30 73.19 74.14 74.76 69.63 66.46 65.60 65.08 62.47 60.54 59.81 60.69 59.01 60.35 60.72 60.87 61.76 61.24 61.79 63.48 63.54 64.59 66.14 68.31 70.51 73.22 73.15 72.41
58.21 57.99 58.15 58.03 58.06 58.17 57.93 57.86 57.85 57.92 58.10 58.64 60.38 61.51 64.49 60.38 58.77 65.00 72.29 70.97 68.83 67.33 65.46 64.92 63.33 61.99 59.49 59.92 60.01 58.88 59.69 60.31 60.89 60.88 61.44 62.62 62.48 63.23 63.68 67.56 69.97 71.35 72.90 72.73 72.35
58.00 57.97 57.82 57.73 57.68 57.47 57.47 57.45 57.54 57.42 57.83 59.07 60.69 61.66 63.10 55.99 63.02 64.05 63.71 64.84 67.00 66.59 65.59 65.02 63.49 63.27 61.14 60.21 59.33 60.54 60.35 60.28 60.62 60.86 61.53 60.66 61.83 63.98 66.50 68.92 68.97 70.19 71.74 72.58 72.70
57.86 57.90 57.68 57.45 57.28 57.03 57.16 56.97 57.07 57.16 57.62 59.69 61.13 64.35 59.87 58.22 62.79 63.76 63.95 65.13 67.13 66.83 64.51 65.73 64.33 62.57 62.47 60.21 61.21 60.55 58.70 59.97 60.54 60.49 59.94 62.27 60.34 61.38 67.20 68.22 68.66 69.29 70.82 71.79 72.97
57.52 57.72 57.60 57.29 56.83 56.44 56.56 56.53 56.54 57.23 58.64 60.39 61.98 64.29 57.33 62.04 63.86 61.82 64.25 64.64 66.32 66.40 65.39 66.02 65.40 63.45 61.99 62.10 60.30 59.07 59.19 56.50 59.19 59.19 61.65 61.29 57.63 64.75 67.10 66.67 66.50 68.73 70.33 71.04 72.32
57.43 57.29 57.24 56.92 56.62 55.94 55.95 55.81 56.96 58.46 59.98 61.43 63.57 61.51 55.72 61.73 58.30 62.11 64.29 63.16 65.04 65.02 65.32 64.35 63.66 62.02 61.61 58.49 57.27 57.66 54.86 54.17 56.11 59.52 58.66 59.11 57.11 65.30 67.16 65.64 65.41 68.68 70.15 70.44 71.66
57.12 57.02 56.93 56.31 55.95 55.66 55.48 55.40 58.21 59.54 61.31 63.95 62.40 58.18 57.80 55.44 59.15 62.06 64.66 64.48 62.96 62.87 61.89 61.93 61.23 59.07 59.16 57.70 52.63 54.74 53.85 54.67 54.70 57.68 57.94 57.48 57.34 63.87 66.62 64.93 66.35 68.07 69.31 70.35 70.67
57.05 56.59 56.42 55.79 55.00 55.10 55.60 60.78 59.74 59.16 60.19 55.86 55.82 56.23 55.92 59.88 61.78 61.33 63.61 62.29 62.49 61.06 58.30 60.42 57.04 55.45 57.75 58.40 57.57 56.77 54.38 54.25 55.88 57.64 57.35 57.61 57.53 60.51 64.91 65.34 65.93 67.10 68.02 68.62 70.67
56.50 56.20 56.13 55.69 54.53 54.80 57.80 60.07 60.07 60.58 55.76 57.82 56.36 56.49 58.86 59.55 56.58 60.27 63.38 59.29 59.28 56.77 59.60 57.82 54.97 58.53 59.34 57.40 56.04 55.99 54.60 54.18 55.84 57.47 57.52 57.78 57.58 61.55 63.22 64.38 65.03 66.08 67.56 68.02 68.33
56.28 55.95 55.62 55.14 54.34 55.63 59.96 60.40 64.62 64.03 57.90 55.32 56.57 56.63 57.03 58.30 56.81 58.17 60.17 59.76 58.16 56.94 57.30 55.69 56.32 59.07 57.20 56.42 55.07 55.49 54.06 54.06 53.58 56.22 57.92 58.32 56.82 61.01 63.46 64.90 66.16 67.87 68.26 68.97 68.84
56.09 55.66 55.20 54.59 52.17 61.30 58.95 62.37 63.93 64.43 55.43 53.23 55.17 57.36 58.55 58.39 55.71 61.02 60.63 59.71 57.83 55.79 56.33 56.02 58.38 56.23 56.12 54.82 56.51 53.15 56.24 54.13 53.69 54.12 52.17 57.78 50.31 59.01 62.08 63.11 64.87 66.20 66.54 66.36 67.81
55.67 55.22 54.37 52.94 60.48 58.63 61.32 63.43 64.17 63.01 47.22 54.29 55.77 61.76 59.41 56.80 57.03 56.57 60.48 59.14 55.71 55.78 56.34 54.62 55.98 55.12 54.28 55.33 56.84 54.53 56.52 55.05 54.85 54.00 54.29 55.46 51.73 50.44 61.70 60.86 63.34 64.26 65.24 66.79 67.09
54.91 54.51 53.98 56.01 60.46 63.57 65.06 64.94 62.24 52.39 47.22 52.57 56.33 54.81 54.84 56.52 55.58 56.59 56.67 59.58 59.22 55.86 56.70 56.34 58.49 57.01 56.31 57.54 56.68 57.36 55.35 55.53 54.82 53.98 49.34 54.78 54.36 51.11 55.84 60.33 62.81 64.39 65.16 65.95 68.05
53.78 52.92 54.18 62.82 61.89 65.23 65.54 61.19 52.27 49.35 55.55 52.07 52.81 54.38 54.24 53.55 54.07 54.31 53.81 54.28 53.64 51.29 51.56 53.93 55.16 57.00 57.65 55.30 57.07 55.99 53.49 49.11 48.30 48.14 47.23 55.58 54.69 52.24 60.53 62.75 63.40 63.79 65.33 66.16 68.23
52.04 51.88 56.10 62.54 65.37 64.94 63.52 55.64 49.98 51.95 52.94 55.86 54.46 54.23 52.26 54.03 54.07 53.53 53.66 52.63 55.63 54.04 52.52 50.24 48.87 54.79 57.38 55.90 54.95 55.62 54.21 49.92 45.53 47.61 49.40 55.99 51.89 57.01 62.18 64.69 65.52 65.57 65.84 67.18 67.87
51.57 61.16 63.05 63.86 63.85 64.69 58.23 52.05 52.25 53.18 55.96 54.10 54.58 52.07 52.51 53.69 53.70 53.38 53.34 53.05 54.62 55.64 52.17 51.49 51.58 57.02 57.38 58.40 57.94 56.33 53.13 56.16 51.93 53.40 50.67 53.31 56.20 61.80 62.89 63.45 64.29 64.93 65.97 66.54 68.38
61.76 64.28 61.85 64.16 65.07 61.87 56.82 51.24 54.60 58.98 58.64 56.29 52.50 54.31 51.74 52.46 52.12 52.58 52.84 55.17 54.21 55.87 57.21 55.19 52.57 57.32 57.84 59.33 59.33 57.68 58.68 51.91 53.00 47.35 47.95 49.64 53.76 56.39 61.14 61.80 63.71 64.23 65.51 67.43 69.02
61.55 60.50 61.97 64.21 64.15 59.53 53.36 54.85 56.09 59.68 59.76 57.46 54.50 53.60 54.45 53.30 53.20 52.96 53.54 55.61 55.95 55.25 57.48 57.42 56.52 55.27 57.85 56.01 55.28 55.29 54.66 55.17 55.25 54.42 49.64 49.17 52.36 59.51 61.32 62.77 63.11 64.64 67.10 68.09 68.94
64.06 58.89 61.75 64.45 57.14 57.67 55.00 56.25 51.96 58.38 60.76 58.77 59.33 57.57 54.90 54.59 53.43 53.79 53.96 55.42 57.04 57.04 54.77 57.57 56.01 54.36 54.68 59.11 60.71 58.68 56.70 57.39 53.37 51.95 54.13 54.25 53.71 62.31 62.91 63.70 64.60 65.52 68.21 69.63 70.25
63.00 62.24 63.01 63.57 54.03 55.13 57.69 56.36 57.63 57.35 58.48 58.51 58.02 58.76 58.26 55.14 53.15 55.04 55.61 58.10 57.57 57.50 56.94 58.06 55.01 52.03 54.42 56.59 58.24 56.01 57.62 57.55 56.91 55.66 54.02 50.00 54.36 63.51 63.69 63.90 64.79 66.66 69.66 70.87 71.33
62.47 56.88 59.12 60.12 60.11 57.61 55.85 55.67 55.22 59.10 57.99 59.65 60.37 60.80 59.30 55.71 56.92 55.14 55.61 57.41 58.59 59.12 63.63 62.42 55.92 54.27 50.88 53.96 57.49 55.43 56.08 56.59 55.46 52.37 52.80 52.73 54.94 60.49 62.34 63.79 64.35 67.82 69.96 70.69 71.27
63.32 61.25 61.25 54.61 55.81 57.14 57.35 56.36 53.78 55.60 59.72 61.40 60.59 60.30 59.01 55.04 54.92 56.20 56.65 58.42 58.94 59.08 59.91 58.30 54.73 56.31 56.15 55.83 56.63 55.25 53.82 54.16 53.73 54.43 51.63 53.19 54.14 57.46 63.37 63.54 65.13 69.08 70.08 70.22 70.43
59.93 61.77 63.46 60.61 59.00 56.73 53.77 56.50 55.52 57.22 59.61 58.62 59.35 60.07 59.95 55.94 56.20 55.83 57.04 58.60 57.76 60.65 59.33 59.77 55.99 55.76 56.55 56.38 55.63 54.68 55.97 55.87 55.56 55.38 55.06 55.20 54.96 64.53 65.38 66.15 67.36 68.95 69.06 69.44 69.73
63.05 63.61 61.79 57.33 59.49 57.40 56.87 56.52 57.05 60.74 61.12 62.21 61.31 60.65 58.89 59.30 61.47 61.26 60.92 60.58 60.26 59.80 58.76 58.23 56.36 56.35 52.82 56.10 56.02 53.43 56.20 56.59 55.36 55.75 55.97 54.80 62.18 64.83 64.16 65.15 67.24 68.56 69.10 69.07 69.44
MSLP
1018.12 1017.81 1017.48 1017.21 1016.99 1016.77 1016.58 1016.37 1016.13 1015.76 1015.43 1015.14 1014.76 1014.20 1013.54 1012.95 1011.48 1010.55 1008.72 1008.29 1007.75 1007.81 1007.92 1006.27 1005.91 1005.02 1004.88 1003.75 1003.51 1002.80 1001.74 1002.13 1002.33 1002.44 1002.93 1003.25 1002.84 1003.66 1004.05 1003.74 1004.41 1004.82 1004.89 1006.09 1007.54
1018.15 1017.87 1017.56 1017.21 1016.86 1016.55 1016.30 1016.11 1015.95 1015.74 1015.41 1014.98 1014.52 1014.10 1013.64 1013.11 1010.99 1008.50 1008.35 1007.87 1008.03 1008.08 1007.20 1005.42 1004.38 1004.13 1003.17 1002.89 1002.76 1002.04 1001.43 1002.53 1002.79 1002.43 1002.58 1002.80 1002.88 1003.27 1002.89 1003.47 1004.12 1005.16 1005.73 1006.71 1007.63
1018.16 1017.85 1017.51 1017.24 1016.90 1016.53 1016.24 1016.01 1015.80 1015.50 1015.25 1014.92 1014.42 1013.85 1013.43 1012.91 1009.96 1006.99 1007.81 1007.87 1008.04 1008.03 1006.99 1005.47 1004.52 1003.63 1002.21 1002.45 1002.52 1002.39 1001.99 1002.49 1002.67 1003.11 1002.79 1002.46 1002.30 1003.00 1002.66 1002.43 1003.53 1004.07 1005.74 1006.91 1007.52
1018.24 1017.88 1017.45 1017.12 1016.82 1016.55 1016.24 1015.98 1015.72 1015.45 1015.17 1014.86 1014.43 1013.83 1013.19 1011.79 1007.91 1006.90 1007.61 1007.82 1007.88 1007.60 1006.74 1005.08 1003.98 1002.83 1001.98 1001.82 1002.53 1002.29 1002.47 1002.48 1002.41 1002.69 1002.78 1002.59 1002.37 1002.18 1002.56 1003.05 1003.59 1003.92 1005.38 1006.57 1007.26
1018.19 1017.83 1017.42 1017.06 1016.70 1016.38 1016.15 1015.98 1015.72 1015.45 1015.14 1014.77 1014.29 1013.86 1012.46 1009.75 1006.79 1006.66 1007.33 1007.52 1007.16 1006.96 1005.74 1004.41 1003.52 1002.72 1001.99 1002.12 1002.43 1002.26 1001.87 1001.97 1002.01 1002.00 1002.16 1002.46 1002.33 1002.36 1002.39 1002.86 1003.75 1003.98 1005.24 1006.09 1006.80
1018.13 1017.73 1017.32 1016.90 1016.51 1016.18 1015.95 1015.77 1015.55 1015.34 1015.06 1014.65 1014.18 1013.81 1011.92 1008.02 1005.92 1006.14 1006.43 1006.41 1005.91 1005.60 1004.79 1004.35 1003.42 1003.14 1002.40 1002.28 1002.26 1002.25 1002.13 1001.72 1001.64 1001.60 1001.68 1002.08 1002.10 1002.49 1002.49 1003.23 1003.72 1004.10 1004.98 1005.73 1006.43
1018.05 1017.58 1017.18 1016.70 1016.27 1016.04 1015.83 1015.59 1015.35 1015.11 1014.80 1014.41 1014.05 1013.02 1009.94 1006.75 1005.91 1005.98 1006.13 1005.68 1005.35 1004.90 1004.20 1004.01 1003.85 1003.51 1002.43 1001.94 1002.39 1002.36 1001.91 1001.33 1001.19 1001.57 1001.67 1002.05 1001.49 1001.93 1002.79 1003.18 1003.59 1003.98 1004.64 1005.16 1005.94
1017.88 1017.38 1016.95 1016.49 1016.05 1015.80 1015.61 1015.37 1015.14 1014.83 1014.47 1014.07 1013.81 1012.21 1008.28 1005.82 1005.81 1006.19 1005.79 1005.42 1005.36 1005.04 1004.48 1004.13 1004.26 1003.76 1002.70 1002.19 1002.19 1001.99 1001.68 1000.74 1001.10 1001.66 1001.84 1002.11 1001.07 1002.41 1002.93 1002.98 1003.10 1003.84 1004.52 1005.10 1005.64
1017.69 1017.17 1016.68 1016.24 1015.87 1015.60 1015.37 1015.17 1014.78 1014.41 1014.10 1013.67 1012.86 1010.47 1006.71 1006.62 1006.10 1005.64 1005.34 1004.92 1004.91 1004.79 1004.73 1004.96 1004.47 1003.23 1002.27 1001.89 1001.08 1001.35 1000.59 1001.16 1000.98 1001.67 1001.71 1001.55 1001.25 1001.88 1002.69 1002.81 1002.92 1003.66 1004.28 1004.88 1005.29
1017.53 1017.01 1016.50 1016.03 1015.68 1015.38 1015.08 1014.84 1014.39 1013.97 1013.46 1012.03 1010.77 1009.11 1006.01 1004.76 1004.64 1004.68 1004.83 1004.59 1004.41 1004.33 1004.47 1004.49 1003.65 1002.56 1001.78 1000.98 1000.41 1000.31 1000.56 1000.92 1000.98 1001.20 1001.52 1001.03 1000.82 1001.44 1002.53 1002.78 1002.93 1003.28 1003.86 1004.69 1005.28
1017.33 1016.83 1016.33 1015.88 1015.53 1015.16 1014.58 1013.64 1013.19 1011.84 1010.21 1007.38 1006.48 1005.45 1004.32 1003.96 1004.60 1004.57 1004.62 1004.59 1004.08 1003.95 1003.47 1003.35 1002.52 1001.44 1000.52 1000.70 1001.31 1001.66 1001.43 1000.97 1000.86 1001.52 1001.60 1000.93 1001.12 1001.16 1002.64 1002.88 1003.12 1003.12 1003.49 1003.66 1004.24
1017.16 1016.67 1016.16 1015.73 1015.37 1015.00 1014.38 1010.15 1008.18 1007.92 1006.87 1006.66 1005.96 1005.11 1004.97 1004.16 1004.10 1003.98 1004.28 1004.17 1003.77 1003.03 1002.75 1002.12 1001.70 1000.94 1000.79 1001.77 1001.99 1001.62 1001.15 1000.38 1000.55 1001.35 1001.42 1000.95 1001.11 1001.37 1002.41 1002.85 1003.28 1003.56 1003.72 1003.96 1004.48
1016.97 1016.46 1015.99 1015.58 1015.22 1014.66 1011.36 1008.61 1008.09 1007.56 1005.59 1004.79 1004.79 1004.40 1004.09 1004.29 1003.06 1003.16 1003.81 1003.45 1003.02 1002.51 1001.86 1001.23 1000.88 1000.86 1001.49 1001.62 1001.72 1001.06 1000.36 1000.07 1000.42 1000.75 1000.76 1000.99 1002.09 1001.87 1002.90 1003.11 1003.39 1003.63 1003.92 1004.11 1004.60
1016.67 1016.20 1015.79 1015.44 1015.30 1010.47 1009.47 1008.34 1008.11 1007.85 1004.65 1003.83 1003.71 1003.50 1003.59 1003.23 1002.37 1002.47 1003.30 1002.94 1002.50 1001.89 1001.64 1001.37 1000.59 1001.45 1001.49 1001.38 1001.08 1000.12 999.97 1000.67 1000.72 1000.80 999.84 1000.59 1002.73 1002.19 1002.61 1002.60 1003.10 1003.21 1003.67 1004.33 1004.85
1016.32 1015.83 1015.50 1015.64 1012.84 1009.46 1007.86 1007.99 1007.91 1007.64 1002.94 1002.36 1002.27 1002.61 1002.44 1002.04 1001.45 1002.35 1002.90 1002.69 1001.97 1001.73 1001.50 1001.07 1000.79 1001.32 1001.12 1000.83 1000.67 1000.32 1000.82 1000.65 1000.47 1000.40 999.78 999.97 1003.15 1005.52 1002.64 1002.20 1002.56 1003.19 1003.69 1004.08 1004.67
1015.87 1015.37 1015.11 1014.16 1012.30 1008.73 1008.42 1008.11 1007.69 1005.64 1001.30 1001.03 1001.59 1002.10 1002.00 1001.75 1001.68 1002.21 1002.62 1002.64 1002.01 1001.68 1001.75 1000.76 1000.99 1000.96 1000.85 1000.72 1000.88 1001.03 1000.91 1000.39 1000.22 999.91 999.56 1000.64 1000.95 1005.59 1003.15 1001.93 1002.41 1003.14 1003.96 1004.22 1004.63
1015.18 1014.70 1014.51 1011.39 1008.59 1008.40 1008.36 1007.61 1005.33 1001.90 1000.29 1000.43 1000.59 1001.06 1001.04 1000.82 1001.14 1001.98 1002.17 1002.10 1001.52 1001.32 1000.92 1001.17 1000.68 1001.05 1000.96 1000.54 1000.57 1000.73 1000.09 998.94 998.68 998.68 1000.74 1000.98 1000.68 1003.88 1002.15 1002.00 1002.46 1002.96 1003.86 1004.29 1004.50
1014.47 1013.96 1012.44 1010.72 1009.09 1009.01 1008.11 1006.39 1002.83 999.53 999.20 999.39 999.61 1000.16 1000.09 1000.06 1000.49 1001.25 1001.33 1001.07 1000.98 1000.32 999.20 999.77 999.88 1000.10 1000.23 1000.44 999.67 999.49 998.98 998.13 997.97 998.54 1000.23 1000.17 999.67 1000.78 1001.34 1002.01 1002.88 1003.40 1003.76 1004.22 1004.61
1013.79 1012.02 1010.02 1008.80 1009.65 1008.98 1006.98 1003.85 1000.44 999.16 998.65 998.74 999.03 999.32 999.32 999.71 999.74 1000.36 1000.44 1000.16 1000.04 1000.04 999.17 998.51 998.55 998.84 999.42 999.52 999.81 998.68 998.84 998.38 997.84 997.72 998.51 1000.06 1000.06 1000.79 1001.13 1001.98 1002.67 1003.35 1003.68 1004.24 1004.78
1012.55 1009.20 1007.73 1008.15 1008.67 1008.19 1005.85 1002.07 999.94 999.72 999.18 998.58 998.48 998.76 998.56 999.13 999.70 999.66 999.67 999.56 999.39 999.86 999.31 998.37 998.24 998.82 999.17 999.88 999.56 999.08 998.75 998.20 998.03 999.30 999.33 1001.35 1001.23 1000.05 1001.17 1001.68 1002.64 1003.22 1003.61 1004.29 1004.76
1012.00 1007.52 1007.47 1007.91 1008.11 1006.66 1003.74 1001.16 1000.58 1000.38 1000.31 998.99 998.23 998.34 998.07 998.47 999.12 998.88 998.56 998.67 999.12 999.42 999.69 998.81 998.63 999.20 999.49 999.28 998.61 999.06 998.76 998.44 999.17 999.49 999.04 999.65 1001.28 1001.34 1001.04 1001.62 1002.43 1003.47 1003.64 1004.20 1004.70
1009.97 1006.30 1007.30 1007.41 1006.65 1004.64 1002.46 1001.03 1001.54 1000.34 1000.35 999.69 999.07 998.19 998.13 997.94 998.48 998.19 997.87 998.14 998.95 999.06 999.49 999.45 998.42 998.86 999.02 999.04 999.44 998.51 998.65 999.32 997.99 999.82 1000.45 999.64 1000.52 1000.95 1001.52 1002.06 1002.81 1003.39 1004.06 1004.54 1005.06
1009.35 1006.19 1007.10 1006.66 1004.50 1002.72 1002.04 1001.33 1001.44 1000.57 999.98 999.47 999.13 998.85 998.24 997.68 998.23 997.96 997.98 998.53 999.22 999.28 999.33 999.49 999.07 999.96 999.95 999.51 999.50 999.20 998.74 998.95 998.63 998.53 999.42 999.73 1000.17 1001.32 1001.63 1002.40 1003.18 1003.57 1004.73 1005.54 1005.91
1009.89 1005.65 1006.02 1006.01 1004.22 1002.59 1001.30 1001.22 1000.79 1000.65 1000.24 999.80 999.32 998.77 998.56 998.04 997.97 997.97 997.95 999.03 999.82 999.82 1000.27 1000.09 999.19 999.05 1000.10 1002.17 1000.80 999.87 999.42 999.56 999.55 999.21 998.85 999.08 1000.21 1001.28 1001.80 1002.79 1003.79 1004.27 1004.90 1005.46 1006.00
1009.26 1004.97 1004.22 1003.91 1003.56 1002.60 1001.37 1000.70 1000.37 999.93 1000.08 999.78 999.41 999.16 998.59 998.09 997.70 997.62 997.95 998.56 999.67 1000.22 1000.52 1000.38 999.75 1000.30 1001.94 1002.01 1001.92 1000.24 999.95 999.82 999.95 1000.16 1000.24 999.83 1000.06 1000.52 1001.87 1002.85 1003.95 1004.74 1005.46 1006.06 1006.38
1009.40 1007.30 1005.21 1003.56 1002.83 1002.19 1001.70 1001.28 1000.49 999.81 999.54 999.30 999.40 998.71 998.41 997.85 997.58 997.32 997.47 998.27 998.98 999.98 1000.09 1000.02 1000.21 1000.93 1000.53 1000.41 1000.67 1000.43 1000.00 999.86 999.87 1000.05 1000.23 1000.47 1000.64 1001.51 1002.76 1003.50 1004.41 1005.14 1005.73 1006.25 1006.85
1010.01 1008.65 1007.72 1004.23 1002.68 1002.16 1001.11 1000.97 1000.33 1000.00 999.81 999.56 998.84 998.56 998.53 997.99 997.47 997.31 997.05 997.60 998.15 999.14 999.64 999.82 999.76 1000.73 1000.31 1000.59 1000.94 1000.19 999.57 999.42 999.63 1000.15 1000.23 1000.42 1001.39 1002.46 1003.40 1004.03 1004.61 1005.23 1005.74 1006.38 1007.17
Wind_Speed
13 12 13 13 13 13 12 12 12 13 14 15 15 17 17 18 23 8 12 7 2 7 5 10 9 9 7 6 6 10 2 9 9 11 9 6 3 7 2 6 3 6 9 18 18
13 13 12 13 14 14 13 13 12 13 14 15 16 17 16 16 13 16 6 4 3 4 14 10 7 4 13 2 3 12 8 9 7 6 6 10 5 5 5 7 11 6 9 16 17
13 13 13 13 13 13 13 13 13 13 14 15 16 18 16 17 13 4 7 5 5 9 14 13 10 12 13 2 1 3 7 3 6 10 10 6 4 4 6 7 7 8 12 15 15
13 13 13 14 13 13 12 12 12 13 14 15 16 17 17 11 6 11 7 3 5 13 14 15 12 14 9 2 3 7 2 1 3 2 4 7 7 7 4 6 6 6 15 16 15
14 14 13 13 14 13 12 11 11 12 13 14 16 15 12 12 16 12 6 8 9 13 15 12 11 9 9 2 3 9 2 4 2 2 4 3 5 8 6 4 2 10 14 16 15
14 14 14 14 13 13 12 11 11 11 12 13 14 16 9 16 6 3 3 6 11 13 12 10 9 9 10 8 9 4 8 6 3 4 4 5 9 2 8 3 2 8 12 14 14
14 14 14 14 14 13 12 11 11 11 12 13 12 8 12 14 4 4 7 11 11 12 10 9 5 11 6 13 3 6 11 5 7 3 6 7 16 4 7 4 5 5 8 11 13
14 15 15 14 14 12 11 11 11 11 13 13 10 11 12 8 7 7 10 9 8 6 12 1 8 14 12 4 9 8 9 6 8 4 6 7 3 10 4 4 4 5 7 8 11
14 16 16 14 11 11 9 11 13 13 11 11 10 10 13 6 12 15 14 13 11 10 7 4 11 17 9 14 14 9 5 3 3 3 6 5 9 11 4 1 2 8 10 8 10
15 16 15 13 11 10 9 11 7 8 9 9 9 9 12 14 15 12 12 13 12 12 10 13 11 15 14 12 5 3 6 3 2 6 6 10 6 15 7 3 4 5 6 9 7
15 16 14 11 11 10 10 7 8 9 13 11 10 11 7 6 7 13 13 13 12 13 16 18 14 15 19 5 9 9 8 9 2 4 10 9 3 5 4 3 4 0 4 2 12
15 15 14 11 10 9 9 10 10 8 11 20 8 12 4 5 14 16 15 15 14 15 18 14 14 16 0 2 8 10 13 13 3 3 10 11 9 8 5 5 3 3 1 3 2
15 14 14 11 8 6 12 11 7 8 10 14 14 13 13 12 15 17 16 18 15 17 16 14 18 6 1 9 11 16 15 9 6 3 15 11 19 9 9 7 5 5 2 7 3
16 14 13 10 5 8 12 13 8 6 9 13 13 11 8 13 12 18 17 15 10 15 11 17 6 6 9 12 14 15 4 3 8 11 11 4 5 4 13 10 6 6 6 1 6
17 16 11 10 13 9 9 3 6 6 8 17 15 12 14 18 18 10 14 13 11 13 11 12 10 7 13 12 9 13 5 10 12 13 19 10 12 17 11 13 11 6 5 6 4
18 15 10 7 8 9 4 3 8 10 5 11 12 15 17 15 11 15 14 13 11 12 12 17 8 11 16 13 5 12 10 15 14 15 10 9 3 5 13 10 10 9 5 3 7
19 14 9 9 1 3 5 7 9 11 16 12 18 19 18 13 13 16 17 17 11 12 13 16 11 12 11 10 12 11 17 13 12 11 3 20 15 17 7 12 11 7 8 4 5
22 8 13 10 3 7 7 11 11 4 13 15 16 19 16 14 15 18 17 16 18 17 10 14 15 17 13 15 17 15 16 13 5 6 9 13 2 7 12 14 10 6 9 4 7
23 7 9 7 10 6 9 12 10 9 8 11 16 16 15 15 7 17 18 17 16 13 17 11 13 20 12 13 15 15 6 19 15 10 10 6 2 13 13 12 10 9 7 7 8
7 7 6 8 9 8 10 17 2 9 6 8 13 13 14 16 10 15 16 15 15 15 20 3 9 11 11 11 14 18 15 7 6 2 10 7 17 7 12 10 10 8 7 8 8
8 7 7 9 7 9 11 12 1 5 7 8 13 10 13 14 16 15 14 12 17 16 15 11 9 5 10 13 9 11 13 10 8 12 8 4 5 10 9 9 8 7 4 7 8
9 6 7 9 9 10 13 4 5 7 10 6 9 10 12 15 15 14 13 13 15 17 16 17 10 14 9 6 14 13 8 16 10 5 16 14 10 9 10 8 9 8 5 7 8
8 5 7 9 9 11 13 3 9 9 8 7 10 10 8 8 11 14 9 13 8 8 13 13 12 9 16 15 11 9 3 13 16 8 12 7 7 7 9 9 6 8 9 8 8
7 6 7 9 14 15 15 14 15 14 11 7 8 8 11 12 13 12 12 10 9 11 6 10 17 12 2 15 12 7 6 6 10 11 13 9 12 14 10 10 7 5 9 10 6
8 6 4 9 12 13 12 8 17 12 12 6 9 13 12 13 16 12 15 14 11 6 6 12 17 12 18 14 25 7 5 5 7 8 11 16 13 5 11 6 8 9 8 9 10
7 6 6 11 2 14 7 11 15 12 7 13 14 15 15 15 14 14 16 11 14 10 12 15 5 12 21 12 6 10 9 10 11 10 10 11 11 12 7 10 8 9 10 9 9
6 6 6 5 10 11 12 14 13 11 3 14 9 15 17 4 8 6 14 12 16 14 16 15 12 9 13 3 11 10 11 12 3 8 11 9 12 5 8 10 10 10 10 10 9
Wind_Direction
343 340 336 334 331 328 323 321 322 322 322 322 322 322 321 320 306 222 249 35 39 164 228 253 223 246 219 241 243 254 280 60 59 67 97 86 52 67 2 97 10 70 23 126 145
341 337 333 329 328 325 321 319 320 318 318 320 320 319 318 323 289 266 79 64 137 215 256 243 255 256 237 189 225 269 64 66 357 63 81 105 351 29 293 106 132 98 91 128 153
339 335 330 326 322 320 317 316 315 317 319 319 318 316 315 312 271 214 69 50 234 236 265 283 276 261 271 267 142 10 56 20 88 36 344 4 178 111 306 62 42 135 141 153 163
341 335 328 325 320 316 312 310 311 313 315 315 313 313 313 269 254 76 81 93 219 243 252 261 248 256 283 245 127 253 164 34 9 83 317 319 356 326 57 42 16 114 149 162 170
342 335 330 326 320 315 309 304 305 307 308 308 311 315 298 231 252 121 150 174 204 212 238 246 263 275 257 298 210 261 39 211 184 294 357 357 294 8 339 106 117 119 153 166 176
340 332 330 323 318 314 308 301 300 300 300 301 306 312 243 254 56 127 261 214 235 221 228 244 263 339 309 258 269 48 275 274 240 308 314 336 311 24 99 59 125 148 165 171 179
338 331 327 323 317 313 303 297 295 295 291 295 301 289 263 251 2 206 226 219 213 232 234 236 282 260 291 248 89 250 267 272 212 2 318 328 260 161 64 169 131 174 178 174 178
334 328 326 322 318 311 299 291 288 283 284 282 287 262 259 205 256 225 227 213 210 230 276 163 256 272 266 324 202 253 244 260 101 342 100 265 342 107 129 141 191 152 162 190 178
329 326 326 322 315 307 293 285 274 270 261 271 248 233 247 127 214 220 215 212 197 211 221 274 252 247 222 240 220 189 269 351 164 121 306 234 321 124 96 292 305 146 160 187 181
328 325 327 326 318 301 287 276 311 246 223 221 268 245 240 216 194 194 198 240 193 199 200 221 227 233 234 231 286 97 303 173 299 48 293 285 282 101 81 330 143 137 150 160 213
328 326 328 325 317 306 287 192 198 189 208 220 188 247 144 105 112 201 185 214 221 202 214 200 221 226 232 221 15 324 288 278 212 74 289 294 311 72 64 163 151 227 177 172 175
326 324 326 317 316 305 275 245 24 353 215 222 247 256 276 262 183 191 185 204 207 215 216 193 233 232 347 30 264 244 253 265 162 190 261 281 310 84 137 97 76 69 174 111 140
322 320 320 318 322 256 236 242 338 318 256 170 207 213 194 207 197 176 199 207 200 223 203 237 200 220 209 226 240 238 250 310 340 269 256 257 350 131 131 150 141 130 134 99 121
320 316 316 315 285 200 227 230 246 303 260 141 186 213 181 216 210 179 199 203 214 229 198 229 154 234 236 234 234 270 28 271 263 262 279 222 49 289 148 148 163 155 63 11 33
319 315 306 253 322 220 48 216 249 249 228 156 151 123 173 220 138 190 187 213 227 225 218 209 238 202 236 236 234 279 351 291 276 260 259 189 104 298 189 142 147 87 109 83 324
319 311 304 193 230 284 261 236 231 233 161 151 143 179 177 220 194 148 187 234 246 215 212 257 186 241 225 231 240 269 285 252 243 248 275 314 251 163 268 98 115 115 114 73 87
318 302 244 313 296 152 241 218 226 255 144 151 168 172 191 186 157 174 183 199 198 197 202 220 217 220 247 249 224 233 251 246 226 223 85 251 267 177 156 90 90 107 116 85 61
325 298 198 264 295 263 224 225 251 129 183 151 176 175 200 172 169 185 191 200 224 219 206 201 204 205 195 235 261 214 254 276 270 254 144 265 252 91 95 100 97 111 106 112 83
318 201 224 194 218 249 228 226 228 180 118 162 170 187 202 175 190 196 205 216 201 231 253 185 247 176 213 214 237 259 254 278 296 252 228 115 236 122 122 115 117 106 110 107 100
286 219 150 143 175 223 241 253 4 7 323 190 187 203 193 184 211 200 193 210 215 205 255 241 201 182 179 231 246 272 319 222 275 92 280 32 294 85 131 142 128 130 121 117 117
250 227 109 169 197 227 235 236 174 188 247 245 239 185 215 185 207 190 188 220 212 187 222 264 241 180 163 212 207 200 237 235 182 254 261 154 167 231 102 127 138 113 150 126 118
281 254 140 175 213 228 229 246 2 256 194 258 304 284 225 181 202 201 217 201 192 184 206 233 281 188 201 99 210 307 88 256 274 65 338 301 101 73 98 103 129 134 119 88 97
267 92 160 220 229 215 236 245 229 243 217 215 224 236 264 200 199 235 209 108 181 221 204 217 249 113 221 195 194 244 239 316 313 286 217 303 115 122 122 117 132 136 131 131 132
273 188 154 211 268 289 207 214 222 207 265 278 276 252 238 244 196 212 189 150 192 234 23 291 244 294 133 323 317 303 252 279 304 298 321 310 120 151 127 132 144 132 152 137 125
241 299 55 187 221 239 274 243 217 223 213 211 226 241 231 224 206 222 214 136 196 127 221 243 251 164 149 180 248 299 274 266 278 305 302 318 330 21 82 138 169 150 133 150 149
308 341 340 294 3 206 187 239 247 219 252 212 233 209 240 216 209 210 194 169 183 172 218 226 237 9 273 186 226 250 259 278 272 268 280 289 272 73 102 120 149 157 158 145 135
21 263 270 244 227 215 221 221 210 247 164 268 225 255 211 269 334 33 221 180 183 181 218 223 260 207 242 96 336 254 250 281 342 308 300 273 74 116 127 146 169 157 163 146 140